Time,TemperatureF,DewpointF,PressureIn,WindDirection,WindDirectionDegrees,WindSpeedMPH,WindSpeedGustMPH,Humidity,HourlyPrecipIn,Conditions,Clouds,dailyrainin,SoftwareType,DateUTC
2013-06-18 00:02:00,69.0,69.0,-100.00,SSW,200,0.0,0.0,99,-99.99,,,-99.99,,2013-06-18 05:02:00,
2013-06-18 00:12:00,69.0,69.0,-100.00,SW,220,0.0,0.0,99,-99.99,,,-99.99,,2013-06-18 05:12:00,
2013-06-18 00:22:00,69.0,69.0,-100.00,SW,220,0.0,0.0,99,-99.99,,,-99.99,,2013-06-18 05:22:00,
2013-06-18 00:34:00,70.0,70.0,-100.00,SW,225,0.0,0.0,99,-99.99,,,-99.99,,2013-06-18 05:34:00,
2013-06-18 00:43:00,72.0,71.0,-100.00,West,260,0.0,0.0,98,-99.99,,,-99.99,,2013-06-18 05:43:00,
2013-06-18 00:53:00,72.0,71.0,-100.00,West,260,0.0,0.0,98,-99.99,,,-99.99,,2013-06-18 05:53:00,
2013-06-18 01:02:00,72.0,71.0,-100.00,West,265,0.0,0.0,98,-99.99,,,-99.99,,2013-06-18 06:02:00,
2013-06-18 01:11:00,71.0,71.0,-100.00,WSW,240,0.0,0.0,99,-99.99,,,-99.99,,2013-06-18 06:11:00,
2013-06-18 01:23:00,71.0,71.0,-100.00,WSW,240,0.0,0.0,99,-99.99,,,-99.99,,2013-06-18 06:23:00,
2013-06-18 01:32:00,71.0,70.0,-100.00,WSW,240,0.0,0.0,99,-99.99,,,-99.99,,2013-06-18 06:32:00,
2013-06-18 01:43:00,70.0,70.0,-100.00,WSW,255,0.0,0.0,99,-99.99,,,-99.99,,2013-06-18 06:43:00,
2013-06-18 01:53:00,70.0,70.0,-100.00,WSW,255,0.0,0.0,99,-99.99,,,-99.99,,2013-06-18 06:53:00,
2013-06-18 02:02:00,70.0,70.0,-100.00,West,270,0.0,0.0,99,-99.99,,,-99.99,,2013-06-18 07:02:00,
2013-06-18 02:12:00,69.0,69.0,-100.00,WSW,240,0.0,0.0,99,-99.99,,,-99.99,,2013-06-18 07:12:00,
2013-06-18 02:22:00,69.0,69.0,-100.00,WSW,240,0.0,0.0,99,-99.99,,,-99.99,,2013-06-18 07:22:00,
2013-06-18 02:33:00,69.0,68.0,-100.00,WNW,300,0.0,0.0,99,-99.99,,,-99.99,,2013-06-18 07:33:00,
2013-06-18 02:43:00,68.0,68.0,-100.00,West,270,0.0,0.0,99,-99.99,,,-99.99,,2013-06-18 07:43:00,
2013-06-18 02:53:00,68.0,68.0,-100.00,West,270,0.0,0.0,99,-99.99,,,-99.99,,2013-06-18 07:53:00,
2013-06-18 03:02:00,68.0,68.0,-100.00,WNW,290,0.0,0.0,99,-99.99,,,-99.99,,2013-06-18 08:02:00,
2013-06-18 03:11:00,68.0,67.0,-100.00,WNW,285,0.0,0.0,99,-99.99,,,-99.99,,2013-06-18 08:11:00,
2013-06-18 03:23:00,68.0,67.0,-100.00,WNW,285,0.0,0.0,99,-99.99,,,-99.99,,2013-06-18 08:23:00,
2013-06-18 03:33:00,67.0,67.0,-100.00,West,275,0.0,0.0,99,-99.99,,,-99.99,,2013-06-18 08:33:00,
2013-06-18 03:43:00,67.0,67.0,-100.00,West,265,0.0,0.0,99,-99.99,,,-99.99,,2013-06-18 08:43:00,
2013-06-18 03:52:00,67.0,67.0,-100.00,West,265,0.0,0.0,99,-99.99,,,-99.99,,2013-06-18 08:52:00,
2013-06-18 04:02:00,67.0,66.0,-100.00,West,265,0.0,0.0,99,-99.99,,,-99.99,,2013-06-18 09:02:00,
2013-06-18 04:12:00,67.0,66.0,-100.00,West,260,0.0,0.0,99,-99.99,,,-99.99,,2013-06-18 09:12:00,
2013-06-18 04:22:00,67.0,66.0,-100.00,West,260,0.0,0.0,99,-99.99,,,-99.99,,2013-06-18 09:22:00,
2013-06-18 04:34:00,67.0,66.0,-100.00,West,280,0.0,0.0,99,-99.99,,,-99.99,,2013-06-18 09:34:00,
2013-06-18 04:43:00,67.0,67.0,-100.00,West,275,0.0,0.0,99,-99.99,,,-99.99,,2013-06-18 09:43:00,
2013-06-18 04:53:00,67.0,67.0,-100.00,West,275,0.0,0.0,99,-99.99,,,-99.99,,2013-06-18 09:53:00,
2013-06-18 05:02:00,67.0,66.0,-100.00,West,280,0.0,0.0,99,-99.99,,,-99.99,,2013-06-18 10:02:00,
2013-06-18 05:11:00,67.0,66.0,-100.00,West,265,0.0,0.0,99,-99.99,,,-99.99,,2013-06-18 10:11:00,
2013-06-18 05:22:00,67.0,66.0,-100.00,West,265,0.0,0.0,99,-99.99,,,-99.99,,2013-06-18 10:22:00,
2013-06-18 05:33:00,67.0,66.0,-100.00,West,270,0.0,0.0,99,-99.99,,,-99.99,,2013-06-18 10:33:00,
2013-06-18 05:43:00,66.0,66.0,-100.00,West,275,0.0,0.0,99,-99.99,,,-99.99,,2013-06-18 10:43:00,
2013-06-18 05:53:00,66.0,66.0,-100.00,West,275,0.0,0.0,99,-99.99,,,-99.99,,2013-06-18 10:53:00,
2013-06-18 06:02:00,66.0,66.0,-100.00,West,270,0.0,0.0,99,-99.99,,,-99.99,,2013-06-18 11:02:00,
2013-06-18 06:11:00,66.0,66.0,-100.00,West,280,0.0,0.0,99,-99.99,,,-99.99,,2013-06-18 11:11:00,
2013-06-18 06:22:00,66.0,66.0,-100.00,West,280,0.0,0.0,99,-99.99,,,-99.99,,2013-06-18 11:22:00,
2013-06-18 06:32:00,66.0,66.0,-100.00,West,270,0.0,0.0,99,-99.99,,,-99.99,,2013-06-18 11:32:00,
2013-06-18 06:43:00,67.0,66.0,-100.00,NW,305,0.0,0.0,99,-99.99,,,-99.99,,2013-06-18 11:43:00,
2013-06-18 06:52:00,67.0,66.0,-100.00,NW,305,0.0,0.0,99,-99.99,,,-99.99,,2013-06-18 11:52:00,
2013-06-18 07:01:00,68.0,67.0,-100.00,SSW,210,0.0,0.0,99,-99.99,,,-99.99,,2013-06-18 12:01:00,
2013-06-18 07:11:00,68.0,68.0,-100.00,West,270,0.0,0.0,99,-99.99,,,-99.99,,2013-06-18 12:11:00,
2013-06-18 07:22:00,68.0,68.0,-100.00,West,270,0.0,0.0,99,-99.99,,,-99.99,,2013-06-18 12:22:00,
2013-06-18 07:33:00,69.0,69.0,-100.00,WNW,295,0.0,0.0,99,-99.99,,,-99.99,,2013-06-18 12:33:00,
2013-06-18 07:43:00,71.0,71.0,-100.00,West,275,0.0,0.0,99,-99.99,,,-99.99,,2013-06-18 12:43:00,
2013-06-18 07:52:00,71.0,71.0,-100.00,West,275,0.0,0.0,99,-99.99,,,-99.99,,2013-06-18 12:52:00,
2013-06-18 08:02:00,73.0,70.0,-100.00,NW,305,0.0,0.0,90,-99.99,,,-99.99,,2013-06-18 13:02:00,
2013-06-18 08:12:00,74.0,69.0,-100.00,WNW,295,0.0,0.0,85,-99.99,,,-99.99,,2013-06-18 13:12:00,
2013-06-18 08:22:00,74.0,69.0,-100.00,WNW,295,0.0,0.0,85,-99.99,,,-99.99,,2013-06-18 13:22:00,
2013-06-18 08:33:00,75.0,68.0,-100.00,West,270,0.0,0.0,79,-99.99,,,-99.99,,2013-06-18 13:33:00,
2013-06-18 08:43:00,76.0,67.0,-100.00,WNW,290,0.0,0.0,73,-99.99,,,-99.99,,2013-06-18 13:43:00,
2013-06-18 08:53:00,76.0,67.0,-100.00,WNW,290,0.0,0.0,73,-99.99,,,-99.99,,2013-06-18 13:53:00,
2013-06-18 09:02:00,76.0,67.0,-100.00,NNW,335,0.0,0.0,73,-99.99,,,-99.99,,2013-06-18 14:02:00,
2013-06-18 09:11:00,76.0,67.0,-100.00,West,280,0.0,0.0,73,-99.99,,,-99.99,,2013-06-18 14:11:00,
2013-06-18 09:22:00,76.0,67.0,-100.00,West,280,0.0,0.0,73,-99.99,,,-99.99,,2013-06-18 14:22:00,
2013-06-18 09:33:00,77.0,67.0,-100.00,WSW,255,0.0,0.0,71,-99.99,,,-99.99,,2013-06-18 14:33:00,
2013-06-18 09:43:00,78.0,67.0,-100.00,WNW,300,0.0,0.0,69,-99.99,,,-99.99,,2013-06-18 14:43:00,
2013-06-18 09:53:00,78.0,67.0,-100.00,WNW,300,0.0,0.0,69,-99.99,,,-99.99,,2013-06-18 14:53:00,
2013-06-18 10:02:00,80.0,68.0,-100.00,NNW,330,0.0,0.0,67,-99.99,,,-99.99,,2013-06-18 15:02:00,
2013-06-18 10:11:00,81.0,67.0,-100.00,NNW,330,0.0,0.0,61,-99.99,,,-99.99,,2013-06-18 15:11:00,
2013-06-18 10:22:00,81.0,67.0,-100.00,NNW,330,0.0,0.0,61,-99.99,,,-99.99,,2013-06-18 15:22:00,
2013-06-18 10:33:00,82.0,65.0,-100.00,NNW,345,0.0,0.0,57,-99.99,,,-99.99,,2013-06-18 15:33:00,
2013-06-18 10:43:00,82.0,66.0,-100.00,NNW,345,0.0,0.0,58,-99.99,,,-99.99,,2013-06-18 15:43:00,
2013-06-18 10:53:00,82.0,66.0,-100.00,NNW,345,0.0,0.0,58,-99.99,,,-99.99,,2013-06-18 15:53:00,
2013-06-18 11:01:00,83.0,66.0,-100.00,North,350,0.0,0.0,56,-99.99,,,-99.99,,2013-06-18 16:01:00,
2013-06-18 11:11:00,82.0,65.0,-100.00,NNW,340,0.0,0.0,55,-99.99,,,-99.99,,2013-06-18 16:11:00,
2013-06-18 11:23:00,82.0,65.0,-100.00,NNW,340,0.0,0.0,55,-99.99,,,-99.99,,2013-06-18 16:23:00,
2013-06-18 11:33:00,84.0,66.0,-100.00,North,350,0.0,0.0,55,-99.99,,,-99.99,,2013-06-18 16:33:00,
2013-06-18 11:43:00,83.0,67.0,-100.00,North,0,0.0,0.0,59,-99.99,,,-99.99,,2013-06-18 16:43:00,
2013-06-18 11:53:00,83.0,67.0,-100.00,North,0,0.0,0.0,59,-99.99,,,-99.99,,2013-06-18 16:53:00,
2013-06-18 12:02:00,82.0,68.0,-100.00,NNW,335,0.0,0.0,62,-99.99,,,-99.99,,2013-06-18 17:02:00,
2013-06-18 12:12:00,83.0,69.0,-100.00,North,355,0.0,0.0,62,-99.99,,,-99.99,,2013-06-18 17:12:00,
2013-06-18 12:22:00,83.0,69.0,-100.00,North,355,0.0,0.0,62,-99.99,,,-99.99,,2013-06-18 17:22:00,
2013-06-18 12:33:00,84.0,70.0,-100.00,North,0,0.0,0.0,63,-99.99,,,-99.99,,2013-06-18 17:33:00,
2013-06-18 12:43:00,84.0,70.0,-100.00,WNW,300,0.0,0.0,62,-99.99,,,-99.99,,2013-06-18 17:43:00,
2013-06-18 12:53:00,84.0,70.0,-100.00,WNW,300,0.0,0.0,62,-99.99,,,-99.99,,2013-06-18 17:53:00,
2013-06-18 13:02:00,83.0,69.0,-100.00,North,0,0.0,0.0,63,-99.99,,,-99.99,,2013-06-18 18:02:00,
2013-06-18 13:11:00,83.0,68.0,-100.00,NNW,335,0.0,0.0,62,-99.99,,,-99.99,,2013-06-18 18:11:00,
2013-06-18 13:22:00,83.0,68.0,-100.00,NNW,335,0.0,0.0,62,-99.99,,,-99.99,,2013-06-18 18:22:00,
2013-06-18 13:33:00,80.0,68.0,-100.00,NNW,340,0.0,0.0,66,-99.99,,,-99.99,,2013-06-18 18:33:00,
2013-06-18 13:42:00,80.0,67.0,-100.00,North,355,0.0,0.0,66,-99.99,,,-99.99,,2013-06-18 18:42:00,
2013-06-18 13:53:00,80.0,67.0,-100.00,North,355,0.0,0.0,66,-99.99,,,-99.99,,2013-06-18 18:53:00,
2013-06-18 14:02:00,80.0,68.0,-100.00,NNW,340,0.0,0.0,66,-99.99,,,-99.99,,2013-06-18 19:02:00,
2013-06-18 14:12:00,81.0,68.0,-100.00,NNW,340,0.0,0.0,65,-99.99,,,-99.99,,2013-06-18 19:12:00,
2013-06-18 14:22:00,81.0,68.0,-100.00,NNW,340,0.0,0.0,65,-99.99,,,-99.99,,2013-06-18 19:22:00,
2013-06-18 14:33:00,81.0,68.0,-100.00,NNE,30,0.0,0.0,66,-99.99,,,-99.99,,2013-06-18 19:33:00,
2013-06-18 14:43:00,81.0,68.0,-100.00,North,0,0.0,0.0,65,-99.99,,,-99.99,,2013-06-18 19:43:00,
2013-06-18 14:53:00,81.0,68.0,-100.00,North,0,0.0,0.0,65,-99.99,,,-99.99,,2013-06-18 19:53:00,
2013-06-18 15:02:00,83.0,68.0,-100.00,North,5,0.0,0.0,62,-99.99,,,-99.99,,2013-06-18 20:02:00,
2013-06-18 15:11:00,84.0,68.0,-100.00,North,0,0.0,0.0,59,-99.99,,,-99.99,,2013-06-18 20:11:00,
2013-06-18 15:23:00,84.0,68.0,-100.00,North,0,0.0,0.0,59,-99.99,,,-99.99,,2013-06-18 20:23:00,
2013-06-18 15:33:00,84.0,66.0,-100.00,NNE,15,0.0,0.0,55,-99.99,,,-99.99,,2013-06-18 20:33:00,
2013-06-18 15:43:00,84.0,66.0,-100.00,North,5,0.0,0.0,55,-99.99,,,-99.99,,2013-06-18 20:43:00,
2013-06-18 15:52:00,84.0,66.0,-100.00,North,5,0.0,0.0,55,-99.99,,,-99.99,,2013-06-18 20:52:00,
2013-06-18 16:02:00,85.0,66.0,-100.00,North,355,0.0,0.0,54,-99.99,,,-99.99,,2013-06-18 21:02:00,
2013-06-18 16:11:00,85.0,67.0,-100.00,NNW,345,0.0,0.0,54,-99.99,,,-99.99,,2013-06-18 21:11:00,
2013-06-18 16:23:00,85.0,67.0,-100.00,NNW,345,0.0,0.0,54,-99.99,,,-99.99,,2013-06-18 21:23:00,
2013-06-18 16:33:00,86.0,68.0,-100.00,NW,315,0.0,0.0,55,-99.99,,,-99.99,,2013-06-18 21:33:00,
2013-06-18 16:43:00,84.0,66.0,-100.00,NE,45,0.0,0.0,55,-99.99,,,-99.99,,2013-06-18 21:43:00,
2013-06-18 16:52:00,84.0,66.0,-100.00,NE,45,0.0,0.0,55,-99.99,,,-99.99,,2013-06-18 21:52:00,
2013-06-18 17:02:00,81.0,65.0,-100.00,East,80,0.0,0.0,57,-99.99,,,-99.99,,2013-06-18 22:02:00,
2013-06-18 17:11:00,81.0,66.0,-100.00,NNE,30,0.0,0.0,61,-99.99,,,-99.99,,2013-06-18 22:11:00,
2013-06-18 17:22:00,81.0,66.0,-100.00,NNE,30,0.0,0.0,61,-99.99,,,-99.99,,2013-06-18 22:22:00,
2013-06-18 17:34:00,81.0,66.0,-100.00,ENE,75,0.0,0.0,61,-99.99,,,-99.99,,2013-06-18 22:34:00,
2013-06-18 17:43:00,81.0,66.0,-100.00,East,90,0.0,0.0,61,-99.99,,,-99.99,,2013-06-18 22:43:00,
2013-06-18 17:53:00,81.0,66.0,-100.00,East,90,0.0,0.0,61,-99.99,,,-99.99,,2013-06-18 22:53:00,
2013-06-18 18:02:00,81.0,66.0,-100.00,NE,40,0.0,0.0,61,-99.99,,,-99.99,,2013-06-18 23:02:00,
2013-06-18 18:11:00,81.0,66.0,-100.00,North,5,0.0,0.0,62,-99.99,,,-99.99,,2013-06-18 23:11:00,
2013-06-18 18:23:00,81.0,66.0,-100.00,North,5,0.0,0.0,62,-99.99,,,-99.99,,2013-06-18 23:23:00,
2013-06-18 18:36:00,81.0,66.0,-100.00,NNE,30,0.0,0.0,61,-99.99,,,-99.99,,2013-06-18 23:36:00,
2013-06-18 18:46:00,80.0,65.0,-100.00,ENE,60,0.0,0.0,61,-99.99,,,-99.99,,2013-06-18 23:46:00,
2013-06-18 18:53:00,80.0,65.0,-100.00,ENE,60,0.0,0.0,61,-99.99,,,-99.99,,2013-06-18 23:53:00,
2013-06-18 19:01:00,80.0,65.0,-100.00,NE,35,0.0,0.0,61,-99.99,,,-99.99,,2013-06-19 00:01:00,
2013-06-18 19:11:00,80.0,66.0,-100.00,NNE,25,0.0,0.0,63,-99.99,,,-99.99,,2013-06-19 00:11:00,
2013-06-18 19:22:00,80.0,66.0,-100.00,NNE,25,0.0,0.0,63,-99.99,,,-99.99,,2013-06-19 00:22:00,
2013-06-18 19:33:00,79.0,65.0,-100.00,NNE,25,0.0,0.0,63,-99.99,,,-99.99,,2013-06-19 00:33:00,
2013-06-18 19:43:00,79.0,65.0,-100.00,ENE,65,0.0,0.0,64,-99.99,,,-99.99,,2013-06-19 00:43:00,
2013-06-18 19:53:00,79.0,65.0,-100.00,ENE,65,0.0,0.0,64,-99.99,,,-99.99,,2013-06-19 00:53:00,
2013-06-18 20:01:00,78.0,66.0,-100.00,East,95,0.0,0.0,66,-99.99,,,-99.99,,2013-06-19 01:01:00,
2013-06-18 20:11:00,78.0,67.0,-100.00,NE,50,0.0,0.0,69,-99.99,,,-99.99,,2013-06-19 01:11:00,
2013-06-18 20:22:00,78.0,67.0,-100.00,NE,50,0.0,0.0,69,-99.99,,,-99.99,,2013-06-19 01:22:00,
2013-06-18 20:32:00,76.0,68.0,-100.00,NE,40,0.0,0.0,75,-99.99,,,-99.99,,2013-06-19 01:32:00,
2013-06-18 20:43:00,75.0,68.0,-100.00,NNE,30,0.0,0.0,78,-99.99,,,-99.99,,2013-06-19 01:43:00,
2013-06-18 20:53:00,75.0,68.0,-100.00,NNE,30,0.0,0.0,78,-99.99,,,-99.99,,2013-06-19 01:53:00,
2013-06-18 21:01:00,74.0,68.0,-100.00,East,80,0.0,0.0,82,-99.99,,,-99.99,,2013-06-19 02:01:00,
2013-06-18 21:11:00,75.0,67.0,-100.00,ENE,60,0.0,0.0,77,-99.99,,,-99.99,,2013-06-19 02:11:00,
2013-06-18 21:21:00,75.0,67.0,-100.00,ENE,60,0.0,0.0,77,-99.99,,,-99.99,,2013-06-19 02:21:00,
2013-06-18 21:32:00,74.0,67.0,-100.00,East,95,0.0,0.0,77,-99.99,,,-99.99,,2013-06-19 02:32:00,
2013-06-18 21:42:00,74.0,66.0,-100.00,East,100,0.0,0.0,76,-99.99,,,-99.99,,2013-06-19 02:42:00,
2013-06-18 21:52:00,74.0,66.0,-100.00,East,100,0.0,0.0,76,-99.99,,,-99.99,,2013-06-19 02:52:00,
2013-06-18 22:01:00,73.0,65.0,-100.00,ESE,105,0.0,0.0,77,-99.99,,,-99.99,,2013-06-19 03:01:00,
2013-06-18 22:11:00,72.0,65.0,-100.00,ESE,110,0.0,0.0,78,-99.99,,,-99.99,,2013-06-19 03:11:00,
2013-06-18 22:22:00,72.0,65.0,-100.00,ESE,110,0.0,0.0,78,-99.99,,,-99.99,,2013-06-19 03:22:00,
2013-06-18 22:33:00,71.0,65.0,-100.00,East,95,0.0,0.0,80,-99.99,,,-99.99,,2013-06-19 03:33:00,
2013-06-18 22:42:00,71.0,64.0,-100.00,East,90,0.0,0.0,80,-99.99,,,-99.99,,2013-06-19 03:42:00,
2013-06-18 22:52:00,71.0,64.0,-100.00,East,90,0.0,0.0,80,-99.99,,,-99.99,,2013-06-19 03:52:00,
2013-06-18 23:01:00,71.0,64.0,-100.00,ESE,110,0.0,0.0,79,-99.99,,,-99.99,,2013-06-19 04:01:00,
2013-06-18 23:11:00,70.0,64.0,-100.00,East,90,0.0,0.0,81,-99.99,,,-99.99,,2013-06-19 04:11:00,
2013-06-18 23:22:00,70.0,64.0,-100.00,East,90,0.0,0.0,81,-99.99,,,-99.99,,2013-06-19 04:22:00,
2013-06-18 23:32:00,70.0,64.0,-100.00,East,100,0.0,0.0,83,-99.99,,,-99.99,,2013-06-19 04:32:00,
2013-06-18 23:42:00,69.0,64.0,-100.00,East,85,0.0,0.0,85,-99.99,,,-99.99,,2013-06-19 04:42:00,
2013-06-18 23:53:00,69.0,64.0,-100.00,East,85,0.0,0.0,85,-99.99,,,-99.99,,2013-06-19 04:53:00,